Location: Unspecified
(0.0000°N, 0.0000°E)
Time: 22:26:12
(UTC+00:00)

USA 184 - Visible Passes

Search period start: 24 November 2017 00:00
Search period end: 04 December 2017 00:00
Orbit: 1710 x 38646 km, 62.9° (Epoch: 12 November)

Date Brightness Start Highest point End Pass type
(mag) Time Alt. Az. Time Alt. Az. Time Alt. Az.
24 Nov 6.8 13:42:20 10° SW 14:05:26 66° WNW 01:09:23 10° SSE visible
25 Nov 6.8 13:37:58 10° SW 14:01:03 66° WNW 01:05:00 10° SSE visible
26 Nov 6.8 13:33:35 10° SW 13:56:41 66° WNW 01:00:37 10° SSE visible
27 Nov 6.8 13:29:12 10° SW 13:52:18 66° WNW 00:56:15 10° SSE visible
28 Nov 6.8 13:24:49 10° SW 13:47:55 66° WNW 00:51:52 10° SSE visible
29 Nov 6.8 13:20:26 10° SW 13:43:32 66° WNW 00:47:29 10° SSE visible
30 Nov 6.8 13:16:04 10° SW 13:39:09 66° WNW 00:43:06 10° SSE visible
01 Dec 6.3 13:11:41 10° SW 13:34:46 66° WNW 00:38:43 10° SSE visible
02 Dec 6.8 13:07:18 10° SW 13:30:23 66° WNW 00:34:21 10° SSE visible
